Location: Carrières
(48.9495°N, 2.0407°E)
Time: 15:27:44
(UTC+00:00)

Courier 1B Rocket - All Passes

Search period start: 13 April 2024 00:00
Search period end: 23 April 2024 00:00
Orbit: 920 x 1201 km, 28.2° (Epoch: 13 April)

Date Brightness Start Highest point End Pass type
(mag) Time Alt. Az. Time Alt. Az. Time Alt. Az.
13 Apr - 09:00:12 10° SSW 09:01:19 10° S 09:02:26 10° S daylight
14 Apr - 07:59:17 10° S 08:00:39 11° S 08:02:01 10° SSE daylight
15 Apr - 06:59:05 10° S 06:59:58 10° S 07:00:50 10° SSE daylight
15 Apr - 08:51:18 10° SSW 08:51:56 10° S 08:52:33 10° S daylight
16 Apr - 07:49:23 10° SSW 07:51:15 11° S 07:53:05 10° SSE daylight
17 Apr - 06:48:22 10° SSW 06:50:33 12° S 06:52:42 10° SSE daylight
18 Apr - 05:47:46 10° S 05:49:49 11° S 05:51:49 10° SSE daylight
18 Apr - 07:40:09 10° SSW 07:41:50 11° S 07:43:29 10° S daylight
19 Apr - 04:47:57 10° S 04:49:04 10° SSE 04:50:09 10° SSE daylight
19 Apr - 06:38:33 10° SSW 06:41:06 12° S 06:43:37 10° SSE daylight
20 Apr - 05:37:28 10° SSW 05:40:22 13° S 05:43:11 10° SSE daylight
21 Apr - 04:36:46 10° SSW 04:39:35 12° S 04:42:21 10° SSE daylight
21 Apr - 06:29:12 10° SSW 06:31:40 12° S 06:34:03 10° SSE daylight
22 Apr - 03:36:35 10° S 03:38:47 11° SSE 03:40:57 10° SSE visible
22 Apr - 05:27:42 10° SSW 05:30:53 13° S 05:34:00 10° SSE daylight
